User: anonymous   Login
Location: ????????
(54.8751°N, 38.5756°E)
Time: 06:44:48
(UTC+00:00)
Language:

ATLAS 3B R/B - Orbit

View from above orbital plane
View from above orbital plane
View from above satellite
View from above satellite

Ground track
Ground track

The orbit data is extracted from the following two-line orbital elements,

1 28538U 05004B   24166.56759880  .00000000  00000-0  13463-3 0  9992
2 28538  63.8257 336.5050 0206957 296.8386  61.1615 13.43259743  6751
Epoch (UTC): 14 June 2024 13:37:20
Eccentricity: 0.0206957
inclination: 63.8257°
perigee height: 942 km
apogee height: 1252 km
right ascension of ascending node: 336.5050°
argument of perigee: 296.8386°
revolutions per day: 13.43259743
mean anomaly at epoch: 61.1615°
orbit number at epoch: 675

The dashed part of the orbit path shows where the satellite is in the earth's shadow,  

DLR